AirNav   Bose Proflight Series 2 Wireless Aviation Headset
 
 1709 users online  

1IN1 Shearer Airport
Lewisville, Indiana, USA

GOING TO LEWISVILLE?


FAA INFORMATION EFFECTIVE 07 NOVEMBER 2019

Location

FAA Identifier: 1IN1
Lat/Long: 39-29-18.1680N 086-39-11.0100W
39-29.302800N 086-39.183500W
39.4883800,-86.6530583
(estimated)
Elevation: 750 ft. / 229 m (estimated)
Variation: 02W (1990)
From city: 2 miles NW of LEWISVILLE, IN
Time zone: UTC -5 (UTC -4 during Daylight Saving Time)
Zip code: 46120

Airport Operations

Airport use: Private use. Permission required prior to landing
Activation date: 09/1993
Control tower: no
ARTCC: INDIANAPOLIS CENTER
FSS: TERRE HAUTE FLIGHT SERVICE STATION
Attendance: IREG
Wind indicator: yes
Segmented circle: no

Airport Communications

WX AWOS-3P at GPC (11 nm NW): 118.125 (765-653-1789)
WX AWOS-3P at 2R2 (18 nm NE): 118.025 (317-718-4872)

Nearby radio navigation aids

VOR radial/distance  VOR name  Freq  Var
OOMr357/20.8HOOSIER VORTAC110.2002W
VHPr213/23.6BRICKYARD VORTAC116.3001E
TTHr088/27.6TERRE HAUTE VORTAC115.3002E
SHBr256/39.3SHELBYVILLE VOR/DME112.0001E

 
NDB name  Hdg/Dist  Freq  Var  ID
CRAWFORDSVILLE162/31.938804WCFJ -.-. ..-. .---
METROPOLITAN229/38.733803WUMP ..- -- .--.

Airport Services

Runway Information

Runway 18/36

Dimensions: 700 x 30 ft. / 213 x 9 m
Surface: turf
RUNWAY 18  RUNWAY 36
Traffic pattern: leftright
Obstructions: 30 ft. trees25 ft. pline

Airport Ownership and Management from official FAA records

Ownership: Privately-owned
Owner: RONALD SHEARER
RR 1 BOX 284-A
QUINCY, IN 47456
Phone 317-528-2656
Manager: RONALD SHEARER
RR 1 BOX 284-A
QUINCY, IN 47456
Phone 317-528-2656

Airport Operational Statistics

Aircraft based on the field: 1
Single engine airplanes: 1
    

Additional Remarks

FOR CD CTC INDIANAPOLIS APCH AT 317-227-5743.

Instrument Procedures

There are no published instrument procedures at 1IN1.

Some nearby airports with instrument procedures:

KGPC - Putnam County Regional Airport (11 nm NW)
2R2 - Hendricks County Airport-Gordon Graham Field (18 nm NE)
KBMG - Monroe County Airport (21 nm S)
0I2 - Brazil Clay County Airport (21 nm W)
KIND - Indianapolis International Airport (22 nm NE)
 
Loc | Ops | Rwys | IFR | FBO | Links
Com | Nav | Svcs | Stats | Notes
Area around 1IN1 (Shearer Airport)
 
Road maps at: MapQuest Bing Google
 
Aerial photo
No photo
 
Sectional chart

 
Airport distance calculator
Flying to Shearer Airport? Find the distance to fly.

From to 1IN1

Sunrise and sunset
Times for 20-Nov-2019
 Local
(UTC-5)
 Zulu
(UTC)
Morning civil twilight07:0812:08
Sunrise07:3712:37
Sunset17:2722:27
Evening civil twilight17:5622:56

Current date and time
Zulu (UTC)  20-Nov-2019 17:29:03
Local (UTC-5)  20-Nov-2019 12:29:03
 
METAR
KGPC 
11nm NW 
201715Z AUTO 19003KT 7SM OVC016 06/03 A3024 RMK AO2
KBMG 
20nm S 
201653Z 10004KT 7SM OVC007 06/04 A3023 RMK AO2 CIG 005V009 SLP241 T00610039
KIND 
22nm NE 
201654Z 21003KT 6SM BR SCT012 OVC023 07/04 A3023 RMK AO2 SLP240 T00720044
TAF
KBMG 
20nm S 
201124Z 2012/2112 00000KT 3SM BR OVC003 FM201500 00000KT P6SM BKN005 FM201600 00000KT P6SM BKN007 FM201700 00000KT P6SM BKN013 FM201900 VRB03KT P6SM BKN070 FM210400 15006KT P6SM BKN180 AMD LTD TO CLD VIS AND WIND TIL 201400
KIND 
22nm NE 
201403Z 2014/2118 VRB03KT 3SM BR SCT008 OVC020 FM201700 VRB05KT P6SM BKN025 FM202000 VRB04KT P6SM BKN100 FM211400 18011KT 6SM -RA OVC080 WS020/22045KT FM211700 20014G23KT 6SM -RA OVC040 WS020/22050KT
NOTAMs
Click for the latest NOTAMs
NOTAMs are issued by the DoD/FAA and will open in a separate window not controlled by AirNav.

 

 
 

Would you like to see your business listed on this page?

 If your business provides an interesting product or service to pilots, flight crews, aircraft, or users of the Shearer Airport, you should consider listing it here.  To start the listing process, click on the button below
 
Add a business
 

Other Pages about Shearer Airport

Update a link
 
Copyright © AirNav, LLC. All rights reserved. Privacy Policy  Contact